User: anonymous   Login
Location: Caltech
(34.1382°N, 118.1253°W)
Time: 00:56:49
(UTC-07:00)
Language:

SO-67 - Orbit

View from above orbital plane
View from above orbital plane
View from above satellite
View from above satellite

Ground track
Ground track

The orbit data is extracted from the following two-line orbital elements,

1 35870U 09049F   14295.79557701  .00016181  00000-0  47614-3 0  6277
2 35870 097.1535 313.1458 0002682 056.7938 029.8374 15.35145085283616
Epoch (UTC): 22 October 2014 19:05:37
Eccentricity: 0.0002682
inclination: 97.1535°
perigee height: 458 km
apogee height: 462 km
right ascension of ascending node: 313.1458°
argument of perigee: 56.7938°
revolutions per day: 15.35145085
mean anomaly at epoch: 29.8374°
orbit number at epoch: 28361

The dashed part of the orbit path shows where the satellite is in the earth's shadow,  

DLR